Location: Baili�vre
(50.0696°N, 4.2409°E)
Time: 08:23:58
(UTC+00:00)

Cosmos 2360 Rocket - Pass Details

Date: 08 August 2020
Orbit: 834 x 845 km, 71.0° (Epoch: 26 September)

Event Time Altitude Azimuth Distance (km) Brightness Sun altitude
Rises 22:10:26 0° 332° (NNW) 3,417 7.0 -20.7°
Reaches altitude 10° 22:12:56 10° 335° (NNW) 2,477 5.8 -20.8°
Maximum altitude 22:18:34 63° 57° (ENE) 945 2.4 -21.2°
Enters shadow 22:20:40 38° 122° (ESE) 1,269 2.7 -21.3°
